EW1052 Weather Reports


time (UTC)temp
C
wind
direction
speed
KPH
gust
KPH
rain 1hr
cm
rain 24hr
cm
rain mn
cm
humidity
%
barometer
mb
20260507044602 -17 0.0 0.0 0.00 1.73 0.00 1014.8
20260507043100 -17 0.0 0.0 0.00 1.73 0.00 1014.7
20260507041551 -17 0.0 0.0 0.00 1.73 0.00 1014.6
20260507040047 -17 0.0 0.0 0.00 1.73 0.00 1014.6
20260507034554 -17 0.0 0.0 0.00 1.73 0.00 1014.5
20260507033043 -17 0.0 0.0 0.00 1.73 0.00 1014.5
20260507031535 -17 0.0 0.0 0.00 1.73 0.00 1014.5
20260507030030 -17 0.0 0.0 0.00 1.73 0.00 1014.6
20260507024543 -17 0.0 0.0 0.00 1.73 0.00 1014.7
20260507023020 -17 0.0 0.0 0.00 1.73 0.00 1014.5
20260507021517 -17 0.0 0.0 0.00 1.73 0.00 1014.6
20260507020013 -17 0.0 0.0 0.00 1.73 0.00 1014.4
20260507014510 -17 0.0 0.0 0.00 1.73 0.00 1014.4
20260507013002 -17 0.0 0.0 0.00 1.73 0.00 1014.4
20260507011559 -17 0.0 0.0 0.00 1.73 0.00 1014.4
20260507010111 -17 0.0 0.0 0.00 1.73 0.00 1014.7
20260507004550 -17 0.0 0.0 0.00 1.73 0.00 1014.6
20260507003045 -17 0.0 0.0 0.00 1.73 0.00 1014.8
20260507001549 -17 0.0 0.0 0.00 1.73 0.00 1014.8
20260507000037 -17 0.0 0.0 0.00 1.73 0.00 1014.9
20260506234532 -17 0.0 0.0 0.00 1.73 0.00 1014.9
20260506233030 10 134 1.6 4.8 0.00 1.73 0.00 96 1015.0
20260506231528 11 131 1.6 4.8 0.00 1.73 0.00 96 1015.0
20260506230029 11 126 0.0 3.2 0.00 1.73 0.00 96 1015.1
20260506224527 11 162 3.2 6.4 0.00 1.75 0.00 96 1015.1
20260506223026 11 155 1.6 8.0 0.00 1.75 0.00 96 1015.1
20260506221522 11 83 3.2 8.0 0.03 1.75 0.00 96 1015.1
20260506220020 11 142 3.2 4.8 0.05 1.75 0.00 96 1014.9
20260506214519 11 229 0.0 1.6 0.10 1.75 1.75 96 1015.0
20260506213018 11 152 0.0 1.6 0.13 1.75 1.75 96 1015.0
20260506211516 11 160 3.2 6.4 0.13 1.73 1.73 96 1015.0
20260506210016 11 125 1.6 8.0 0.10 1.68 1.68 96 1014.7
20260506204515 11 150 1.6 4.8 0.08 1.68 1.65 96 1014.7
20260506203013 12 124 0.0 6.4 0.13 1.65 1.63 96 1014.5
20260506201512 12 133 3.2 9.7 0.18 1.65 1.60 96 1014.6
20260506200012 12 72 0.0 1.6 0.25 1.63 1.57 96 1014.3
20260506194507 12 65 1.6 3.2 0.36 1.65 1.55 96 1014.1
20260506193004 12 1 1.6 3.2 0.51 1.60 1.50 96 1014.1
20260506191504 12 273 1.6 6.4 0.61 1.52 1.42 96 1013.9
20260506190003 13 150 3.2 9.7 0.71 1.42 1.32 96 1013.3
20260506184506 13 150 3.2 8.0 0.66 1.35 1.17 96 1013.3
20260506183107 13 161 3.2 8.0 0.51 1.17 0.99 95 1013.1
20260506181558 13 177 4.8 11.3 0.51 0.97 0.79 94 1013.0
20260506180057 13 248 4.8 14.5 0.43 0.71 0.58 91 1012.8
20260506174606 13 140 4.8 8.0 0.36 0.76 0.51 90 1012.6
20260506173126 13 136 0.0 3.2 0.33 0.71 0.48 90 1012.7
20260506171556 14 149 1.6 6.4 0.13 0.51 0.28 88 1012.7
20260506170055 15 315 4.8 17.7 0.00 0.41 0.15 88 1012.5
20260506164555 15 222 3.2 11.3 0.00 0.51 0.15 91 1012.2
20260506163055 15 70 1.6 4.8 0.00 0.51 0.15 92 1012.1
20260506161605 15 360 8.0 16.1 0.00 0.51 0.15 91 1012.0
20260506160054 16 338 6.4 9.7 0.00 0.51 0.15 88 1012.0
20260506154557 16 39 6.4 8.0 0.00 0.61 0.15 84 1011.5
20260506153052 16 12 6.4 11.3 0.00 0.61 0.15 86 1011.5
20260506151552 16 9 9.7 16.1 0.00 0.61 0.15 85 1011.5
20260506150058 16 340 8.0 11.3 0.03 0.61 0.15 82 1011.7
20260506144603 17 302 3.2 8.0 0.03 0.79 0.15 89 1011.8
20260506143053 17 122 0.0 1.6 0.13 0.79 0.15 88 1011.7
20260506141550 17 204 1.6 9.7 0.13 0.79 0.15 87 1011.8
20260506134547 17 184 4.8 20.9 0.08 0.94 0.13 80 1011.7
20260506133100 18 172 14.5 32.2 0.00 0.86 0.05 74 1011.7
20260506131546 19 148 24.1 41.8 0.00 0.86 0.05 71 1011.8
20260506130110 20 186 11.3 27.4 0.03 0.86 0.05 75 1012.1
20260506124540 18 184 12.9 20.9 0.03 1.27 0.05 79 1012.3
20260506123044 17 224 11.3 24.1 0.03 1.27 0.05 83 1012.4
20260506121545 17 167 9.7 30.6 0.03 1.27 0.05 82 1012.4
20260506120037 18 200 12.9 37.0 0.00 1.27 0.03 74 1012.2
20260506114536 19 233 16.1 30.6 0.00 1.42 0.03 73 1012.2
20260506113037 18 174 12.9 33.8 0.00 1.42 0.03 76 1012.2
20260506111533 17 187 17.7 32.2 0.00 1.42 0.03 77 1012.3
20260506110040 17 269 6.4 27.4 0.00 1.42 0.03 77 1012.7
20260506104532 17 184 16.1 30.6 0.00 1.65 0.03 76 1012.9
20260506103029 18 180 16.1 33.8 0.00 1.65 0.03 77 1012.8
20260506101532 18 222 12.9 30.6 0.00 1.65 0.03 76 1012.8
20260506100025 17 207 19.3 37.0 0.00 1.65 0.03 76 1012.7
20260506094526 17 181 11.3 29.0 0.00 1.65 0.03 78 1012.6
20260506093030 16 181 17.7 33.8 0.00 1.65 0.03 79 1012.8
20260506091520 16 207 12.9 33.8 0.00 1.65 0.03 77 1012.8
20260506090017 16 174 11.3 25.7 0.00 1.65 0.03 78 1012.9
20260506084514 16 229 16.1 40.2 0.00 1.65 0.03 82 1012.8
20260506083009 15 197 8.0 17.7 0.00 1.65 0.03 90 1012.6
20260506081514 14 180 6.4 20.9 0.00 1.65 0.03 90 1012.8
20260506073007 14 122 11.3 29.0 0.00 1.70 0.03 89 1012.5
20260506071506 15 162 11.3 32.2 0.00 1.70 0.03 89 1012.4
20260506061601 13 146 12.9 27.4 0.00 1.70 0.03 90 1012.2